Content
SEND FEEDBACK

Daily
Averages
Monthly
Summary
United States of America

EL PASO, TEXAS


Home > North America > United States > Texas
Elevation: 3918 feet     Latitude: 31 48N     Longitude: 106 24W

WEATHER
 
SELECT A DAY
Number of Records: 174,057;   Date Range: 1/1/95 - 9/29/14
 
SHARE

PRINT THIS DATA

[ ← Previous Day ]
WEATHER ALMANAC - APRIL 18, 2013
[ Next Day → ]
[ °C ]   °F
Weather ElementAverageHighLow
Temperature55.9 °F66 °F (3:51 pm)46 °F (6:51 am)
Dewpoint9.2 °F19.9 °F (1:51 am)-9.9 °F (6:51 pm)
Humidity18.2 %34 % (6:51 am)5 % (6:51 pm)
Barometer29.91 in30.07 in (11:51 pm)29.81 in (1:51 am)
Wind Speed11.5 mph20.7 mph (3:51 pm)
Wind Gust29.9 mph (2:51 pm)
Weather ElementAverage
Visibility10 mi
Wind DirectionW (268.7 °)

Weather ElementTotal
Precipitation---
Heating Degree Days9 (Base 65)
Growing Degree Days6 (Base 50)
Averaged from 23 records on April 18, 2013
WEATHER CONDITIONS BREAKOUT
WIND DIRECTION BREAKOUT
WEATHER BY HOUR - APRIL 18, 2013
[ °C ]   °F
Local TimeTemperatureDewpointHumidityBarometerVisibilityWind DirectionWind SpeedGust SpeedPrecipitationEventsConditions
1:51 AM51.1 °F19.9 °F29 %29.81 in10.0 miNorth (350°)11.5 mphPartly Cloudy
2:51 AM50.0 °F18.0 °F28 %29.81 in10.0 miNorth (360°)8.1 mphPartly Cloudy
3:51 AM50.0 °F18.0 °F28 %29.82 in10.0 miNNW (340°)8.1 mphScattered Clouds
4:51 AM48.0 °F17.1 °F29 %29.84 in10.0 miNorth (10°)4.6 mphScattered Clouds
5:51 AM46.9 °F18.0 °F32 %29.86 in10.0 miNorth (360°)9.2 mphScattered Clouds
6:51 AM46.0 °F19.0 °F34 %29.89 in10.0 miNorth (360°)8.1 mphScattered Clouds
7:51 AM48.0 °F19.9 °F33 %29.93 in10.0 miNorth (360°)8.1 mphScattered Clouds
8:51 AM51.1 °F19.0 °F28 %29.95 in10.0 miNNE (30°)11.5 mphScattered Clouds
9:51 AM53.1 °F18.0 °F25 %29.95 in10.0 miNNE (20°)8.1 mphScattered Clouds
10:51 AM55.0 °F16.0 °F22 %29.95 in10.0 miNNE (20°)5.8 mphPartly Cloudy
11:51 AM59.0 °F10.0 °F14 %29.93 in10.0 miWest (270°)18.4 mph26.5 mphPartly Cloudy
12:51 PM59.0 °F10.0 °F14 %29.93 in10.0 miWest (280°)10.4 mph18.4 mphPartly Cloudy
1:51 PM62.1 °F9.0 °F12 %29.91 in10.0 miWNW (300°)16.1 mph23.0 mphPartly Cloudy
2:51 PM63.0 °F6.1 °F11 %29.90 in10.0 miWest (280°)15.0 mph29.9 mphPartly Cloudy
3:51 PM66.0 °F0.0 °F7 %29.88 in10.0 miWest (280°)20.7 mph26.5 mphPartly Cloudy
4:51 PM64.9 °F1.9 °F8 %29.87 in10.0 miWSW (250°)17.3 mph24.2 mphClear
5:51 PM64.9 °F1.0 °F8 %29.89 in10.0 miWest (270°)13.8 mph23.0 mphClear
6:51 PM64.9 °F-9.9 °F5 %29.89 in10.0 miWNW (300°)17.3 mph23.0 mphClear
7:51 PM62.1 °F-7.1 °F6 %29.93 in10.0 miNW (320°)5.8 mphClear
8:51 PM59.0 °F1.0 °F10 %29.97 in10.0 miNorth (360°)11.5 mphClear
9:51 PM55.9 °F1.9 °F11 %30.01 in10.0 miNorth (350°)10.4 mphClear
10:51 PM54.0 °F3.0 °F13 %30.03 in10.0 miNorth (350°)9.2 mphClear
11:51 PM52.0 °F1.0 °F12 %30.07 in10.0 miNorth (360°)16.1 mphClear
Hourly data recorded from KELP, located miles away from El Paso, Texas







STORIES FROM OUR PARTNERS